{"data":{"norad_id":44968,"epoch":"2026-05-25T02:55:33.443040Z","epoch_age_seconds":54545,"freshness":"FRESH","line1":"1 44968U 20001BG  26145.12191485  .00062993  00000+0  11639-2 0  9993","line2":"2 44968  53.1506 307.3990 0001409 287.5072  72.5782 15.48503446352178","mean_motion":15.48503446,"eccentricity":0.0001409,"inclination_deg":53.1506,"raan_deg":307.399,"arg_perigee_deg":287.5072,"mean_anomaly_deg":72.5782,"bstar":0.0011639,"rev_number":35217,"period_min":92.993012299696,"perigee_km":420.14528998019,"apogee_km":422.06131589756,"semimajor_km":6799.2403029389,"source":"CELESTRAK","updated_at":"2026-05-25T13:38:16.376524Z"}}